Change the Weather History Date:

Friday, January 4, 2013

  Actual Average Record
Temperature  
Mean Temperature 24 °F 28 °F  
Max Temperature 29 °F 36 °F 66 °F (1998)
Min Temperature 18 °F 21 °F -15 °F (1879)
Degree Days  
Heating Degree Days 41 37  
Month to date heating degree days 179 148  
Since 1 July heating degree days 2160 2224  
Cooling Degree Days 0 0  
Month to date cooling degree days 0 0  
Year to date cooling degree days 0 0  
Moisture  
Dew Point 17 °F    
Average Humidity 76    
Maximum Humidity 88    
Minimum Humidity 63    
Precipitation  
Precipitation 0.00 in 0.10 in 2.44 in (2004)
Month to date precipitation 0.01 0.40  
Year to date precipitation 0.01 0.40  
Snow  
Snow 0.00 in 0.30 in 5.20 in (1996)
Month to date snowfall 0.3 1.1  
Since 1 July snowfall 15.3 9.1  
Snow Depth 5.00 in    
Sea Level Pressure  
Sea Level Pressure 30.34 in    
Wind  
Wind Speed 12 mph (WSW)    
Max Wind Speed 28 mph    
Max Gust Speed 31 mph    
Visibility 10 miles    
Events      
T = Trace of Precipitation, MM = Missing Value Source: NWS Daily Summary

Daily Weather History Graph

Daily Weather History Graph

Search for Another Location

Airport or City:

Trip Planner

Search our weather history database for the weather conditions in past years. The results will help you decide how hot, cold, wet, or windy it might be!

Date:

Astronomy

Jan. 04, 2013 Rise Set
Actual Time 8:06 AM EST 5:34 PM EST
Civil Twilight 7:36 AM EST 6:04 PM EST
Nautical Twilight 7:02 AM EST 6:38 PM EST
Astronomical Twilight 6:29 AM EST 7:10 PM EST
Moon 12:07 AM EST (1/4) 11:50 AM EST (1/4)
Length of Visible Light 10h 28m
Length of Day
9h 28m
Waning Gibbous, 55% of the Moon is Illuminated
Jan 4
Waning Gibbous
Jan 4
Last Quarter
Jan 11
New
Jan 18
First Quarter
Jan 26
Full

Hourly Weather History & Observations

Time (EST) Temp. Windchill Dew Point Humidity Pressure Visibility Wind Dir Wind Speed Gust Speed Precip Events Conditions
12:54 AM 28.0 °F 16.5 °F 19.9 °F 72% 30.34 in 10.0 mi West 15.0 mph - N/A   Mostly Cloudy
1:21 AM 26.6 °F 13.8 °F 19.4 °F 74% 30.31 in 10.0 mi West 17.3 mph - N/A   Scattered Clouds
1:54 AM 24.1 °F 13.7 °F 18.0 °F 77% 30.33 in 10.0 mi West 10.4 mph - N/A   Clear
2:54 AM 21.9 °F 12.5 °F 16.0 °F 78% 30.33 in 10.0 mi WSW 8.1 mph - N/A   Clear
4:43 AM 19.4 °F 9.5 °F 15.8 °F 86% 30.31 in 10.0 mi WSW 8.1 mph - N/A   Mostly Cloudy
4:54 AM 19.9 °F 10.1 °F 16.0 °F 85% 30.34 in 10.0 mi WSW 8.1 mph - N/A   Mostly Cloudy
5:54 AM 21.0 °F 9.9 °F 17.1 °F 85% 30.33 in 10.0 mi WSW 10.4 mph - N/A   Mostly Cloudy
6:07 AM 19.4 °F 7.9 °F 15.8 °F 86% 30.30 in 10.0 mi WSW 10.4 mph - N/A   Scattered Clouds
6:38 AM 19.4 °F 8.6 °F 15.8 °F 86% 30.31 in 10.0 mi WSW 9.2 mph - N/A   Mostly Cloudy
6:54 AM 19.0 °F 10.0 °F 16.0 °F 88% 30.34 in 10.0 mi WSW 6.9 mph - N/A   Scattered Clouds
7:54 AM 19.9 °F 9.3 °F 16.0 °F 85% 30.34 in 9.0 mi WSW 9.2 mph - N/A   Partly Cloudy
8:54 AM 19.0 °F 9.0 °F 16.0 °F 88% 30.35 in 6.0 mi WSW 8.1 mph - N/A   Clear
9:54 AM 21.9 °F 8.2 °F 16.0 °F 78% 30.38 in 8.0 mi West 16.1 mph - N/A   Clear
10:54 AM 21.9 °F 9.2 °F 15.1 °F 75% 30.39 in 10.0 mi WSW 13.8 mph - N/A   Clear
11:54 AM 24.1 °F 11.5 °F 15.1 °F 69% 30.37 in 10.0 mi WSW 15.0 mph - N/A   Clear
12:54 PM 25.0 °F 11.7 °F 16.0 °F 69% 30.36 in 10.0 mi WSW 17.3 mph - N/A   Clear
1:54 PM 26.1 °F 13.1 °F 17.1 °F 69% 30.35 in 10.0 mi WSW 17.3 mph - N/A   Clear
2:54 PM 28.0 °F 16.1 °F 18.0 °F 66% 30.34 in 10.0 mi WSW 16.1 mph - N/A   Clear
3:54 PM 28.9 °F 17.7 °F 19.0 °F 67% 30.33 in 10.0 mi SW 15.0 mph - N/A   Clear
4:54 PM 28.0 °F 16.5 °F 19.0 °F 69% 30.34 in 10.0 mi SW 15.0 mph - N/A   Clear
5:54 PM 27.0 °F 15.6 °F 19.0 °F 72% 30.34 in 10.0 mi SW 13.8 mph - N/A   Clear
6:54 PM 26.1 °F 15.6 °F 18.0 °F 71% 30.35 in 10.0 mi SW 11.5 mph - N/A   Clear
7:54 PM 26.1 °F 15.6 °F 18.0 °F 71% 30.35 in 10.0 mi SW 11.5 mph - N/A   Clear
8:54 PM 26.1 °F 15.6 °F 19.0 °F 75% 30.34 in 10.0 mi SW 11.5 mph - N/A   Clear
9:54 PM 25.0 °F 15.5 °F 19.0 °F 78% 30.33 in 10.0 mi SW 9.2 mph - N/A   Clear
10:54 PM 23.0 °F 13.9 °F 19.0 °F 85% 30.35 in 9.0 mi WSW 8.1 mph - N/A   Clear
11:54 PM 23.0 °F 14.7 °F 18.0 °F 81% 30.35 in 9.0 mi SW 6.9 mph - N/A   Clear